Voltar ao catálogo

STARLINK-35769

AtivoComunicaçõesVLEO
NORAD 66842·PAYLOAD·🇺🇸 United States

Lançado Dec 2, 2025 de Vandenberg Space Force Base

Loading…

Próximas Passagens (próximas 24 horas)

TLE

AtualizadoSource: CelesTrak SupGP

Época: Sep 15, 2026, 03:25 UTC

1 66842C 25280X   26258.14284722 -.00031007  00000+0 -25978-2 0  2589
2 66842  70.0013 216.6103 0002918 271.6567 251.4400 14.98357634    19

Acompanhe STARLINK-35769 em tempo real com AllMySat

Download on the App Store